Simultaneous Nadir Overpasses (SNOs) Predictions

Prediction of SNOs between GOES-16 and LANDSAT-8 Satellite Orbit:

Table of predicted SNOs for the next 14.0 days since TLE Epoch: 8/20/2022
Index Date Time (GOES-16) GOES-16 Lat,Lon LANDSAT-8 Lat,Lon Distance(km) Time Diff (sec)
1 08/21/2022 15:03:37 -0.02, -75.21 -0.61, -72.47 312.20 80
2 08/22/2022 03:22:21 0.03, -75.20 -0.51, -77.65 279.59 80
3 08/24/2022 03:10:10 0.02, -75.21 0.14, -74.70 58.04 80
4 08/26/2022 02:57:58 0.01, -75.22 0.73, -71.73 396.47 80
5 08/26/2022 15:21:53 -0.01, -75.24 0.33, -76.90 187.51 80
6 08/28/2022 15:07:01 -0.01, -75.27 -0.27, -73.93 151.62 80
7 08/29/2022 03:31:05 0.01, -75.26 -0.84, -79.12 439.48 80
8 08/30/2022 14:54:51 -0.01, -75.30 -0.94, -70.98 491.26 80
9 08/31/2022 03:18:54 0.01, -75.29 -0.17, -76.17 99.68 80
10 09/02/2022 03:04:02 0.01, -75.32 0.45, -73.21 240.40 80
11 09/02/2022 15:27:58 -0.01, -75.34 0.62, -78.37 343.28 80
